Weather History for South Bend, IN

Change the Weather History Date:

Monday, February 11, 2013

  Actual Average Record
Temperature  
Mean Temperature 41 °F 27 °F  
Max Temperature 50 °F 34 °F 72 °F (1999)
Min Temperature 31 °F 20 °F -12 °F (1899)
Degree Days  
Heating Degree Days 24 38  
Month to date heating degree days 432 433  
Since 1 July heating degree days 3780 4081  
Cooling Degree Days 0 0  
Month to date cooling degree days 0 0  
Year to date cooling degree days 0 0  
Moisture  
Dew Point 26 °F    
Average Humidity 73    
Maximum Humidity 86    
Minimum Humidity 60    
Precipitation  
Precipitation T in 0.07 in 1.01 in (2009)
Month to date precipitation 0.92 0.70  
Year to date precipitation 5.92 2.99  
Snow  
Snow T in - - ()
Month to date snowfall 10.7  
Snow Depth 0.00 in    
Sea Level Pressure  
Sea Level Pressure 29.76 in    
Wind  
Wind Speed 21 mph (WSW)    
Max Wind Speed 33 mph    
Max Gust Speed 44 mph    
Visibility 10 miles    
Events Rain , Snow    
T = Trace of Precipitation, MM = Missing Value Source: NWS Daily Summary

Daily Weather History Graph

Daily Weather History Graph

Search for Another Location

Airport:

Trip Planner

Search our weather history database for the weather conditions in past years. The results will help you decide how hot, cold, wet, or windy it might be!

Date:

Astronomy

Feb. 11, 2013 Rise Set
Actual Time 7:45 AM EST 6:13 PM EST
Civil Twilight 7:16 AM EST 6:42 PM EST
Nautical Twilight 6:44 AM EST 7:15 PM EST
Astronomical Twilight 6:11 AM EST 7:47 PM EST
Moon 8:07 AM EST (2/11) 8:12 PM EST (2/11)
Length of Visible Light 11h 25m
Length of Day
10h 28m
Waxing Crescent, 3% of the Moon is Illuminated
Feb 11
Waxing Crescent
Feb 17
First Quarter
Feb 25
Full
Mar 4
Last Quarter
Mar 11
New

Hourly Weather History & Observations

Time (EST) Temp. Windchill Dew Point Humidity Pressure Visibility Wind Dir Wind Speed Gust Speed Precip Events Conditions
12:54 AM 50.0 °F - 45.0 °F 83% 29.59 in 10.0 mi SSW 19.6 mph 25.3 mph N/A   Overcast
1:54 AM 48.9 °F - 39.9 °F 71% 29.58 in 10.0 mi SW 21.9 mph 28.8 mph N/A   Overcast
2:54 AM 46.0 °F 38.8 °F 33.1 °F 61% 29.59 in 10.0 mi SW 18.4 mph 35.7 mph N/A   Clear
3:54 AM 44.6 °F 36.4 °F 32.0 °F 61% 29.58 in 10.0 mi WSW 20.7 mph 29.9 mph N/A   Overcast
4:54 AM 41.0 °F 30.7 °F 28.9 °F 62% 29.60 in 10.0 mi WSW 25.3 mph 42.6 mph N/A   Overcast
5:54 AM 39.0 °F 27.4 °F 28.9 °F 67% 29.63 in 10.0 mi West 28.8 mph 33.4 mph N/A   Overcast
6:31 AM 37.4 °F 26.4 °F 26.6 °F 65% 29.63 in 10.0 mi WSW 23.0 mph 43.7 mph 0.00 in Rain Light Rain
6:38 AM 37.4 °F 26.1 °F 26.6 °F 65% 29.64 in 10.0 mi WSW 24.2 mph 39.1 mph 0.00 in   Overcast
6:54 AM 36.0 °F 24.7 °F 25.0 °F 64% 29.66 in 10.0 mi WSW 21.9 mph 40.3 mph 0.00 in   Overcast
7:54 AM 35.1 °F 23.8 °F 25.0 °F 67% 29.68 in 10.0 mi WSW 20.7 mph 34.5 mph N/A   Overcast
7:58 AM 35.6 °F 25.2 °F 24.8 °F 65% 29.67 in 10.0 mi WSW 18.4 mph 27.6 mph N/A   Overcast
8:54 AM 34.0 °F 21.3 °F 25.0 °F 70% 29.70 in 10.0 mi WSW 25.3 mph 35.7 mph 0.00 in   Overcast
9:27 AM 33.8 °F 21.3 °F 24.8 °F 70% 29.70 in 10.0 mi WSW 24.2 mph 32.2 mph 0.00 in   Overcast
9:54 AM 34.0 °F 22.4 °F 23.0 °F 64% 29.73 in 10.0 mi WSW 20.7 mph 33.4 mph 0.00 in   Overcast
10:54 AM 34.0 °F 21.5 °F 23.0 °F 64% 29.73 in 10.0 mi WSW 24.2 mph 34.5 mph N/A   Overcast
11:41 AM 33.8 °F 21.9 °F 24.8 °F 70% 29.73 in 10.0 mi WSW 21.9 mph - N/A   Overcast
11:54 AM 34.0 °F 21.5 °F 24.1 °F 67% 29.75 in 10.0 mi WSW 24.2 mph 32.2 mph N/A   Overcast
12:54 PM 34.0 °F 22.1 °F 23.0 °F 64% 29.77 in 8.0 mi WSW 21.9 mph 31.1 mph 0.00 in Snow Light Snow
1:54 PM 34.0 °F 21.3 °F 23.0 °F 64% 29.78 in 10.0 mi WSW 25.3 mph 34.5 mph 0.00 in   Overcast
2:54 PM 34.0 °F 21.0 °F 23.0 °F 64% 29.81 in 10.0 mi West 26.5 mph 36.8 mph N/A   Overcast
3:54 PM 33.1 °F 19.8 °F 23.0 °F 66% 29.83 in 10.0 mi West 26.5 mph 38.0 mph N/A   Overcast
4:54 PM 33.1 °F 21.9 °F 21.9 °F 64% 29.86 in 10.0 mi WSW 18.4 mph 31.1 mph N/A   Overcast
5:54 PM 33.1 °F 21.9 °F 21.9 °F 64% 29.89 in 10.0 mi West 18.4 mph - N/A   Overcast
6:54 PM 32.0 °F 20.5 °F 21.9 °F 66% 29.92 in 10.0 mi West 18.4 mph 26.5 mph 0.00 in   Overcast
7:54 PM 32.0 °F 21.6 °F 21.9 °F 66% 29.94 in 10.0 mi West 15.0 mph 28.8 mph N/A   Overcast
8:36 PM 32.0 °F 21.2 °F 21.2 °F 64% 29.93 in 10.0 mi West 16.1 mph 25.3 mph N/A   Overcast
8:54 PM 32.0 °F 20.5 °F 21.9 °F 66% 29.96 in 10.0 mi WNW 18.4 mph 26.5 mph N/A   Overcast
9:54 PM 30.9 °F 18.1 °F 21.0 °F 67% 29.97 in 10.0 mi WNW 21.9 mph 28.8 mph N/A   Overcast
10:54 PM 30.9 °F 20.7 °F 19.9 °F 64% 29.99 in 10.0 mi West 13.8 mph - N/A   Overcast
11:54 PM 30.9 °F 21.7 °F 21.0 °F 67% 30.00 in 10.0 mi West 11.5 mph 21.9 mph N/A   Overcast